Weather History for Minneapolis, MN

Change the Weather History Date:

Tuesday, July 29, 2014

  Actual Average Record
Temperature  
Mean Temperature 70 °F 73 °F  
Max Temperature 81 °F 83 °F 98 °F (1999)
Min Temperature 59 °F 64 °F 47 °F (1971)
Degree Days  
Heating Degree Days 0 0  
Month to date heating degree days 7 0  
Since 1 June heating degree days 28 44  
Since 1 July heating degree days 7 0  
Cooling Degree Days 5 8  
Month to date cooling degree days 201 258  
Year to date cooling degree days 415 458  
Since 1 June cooling degree days 363 416  
Growing Degree Days 20 (Base 50)    
Moisture  
Dew Point 55 °F    
Average Humidity 62    
Maximum Humidity 84    
Minimum Humidity 39    
Precipitation  
Precipitation 0.00 in 0.14 in 1.11 in (1989)
Month to date precipitation 2.27 3.76  
Year to date precipitation 28.10 17.59  
Snow  
Snow 0.00 in 0.00 in 0.00 in ()
Month to date snowfall 0.0 0.0  
Since 1 June snowfall 0.0 0.0  
Since 1 July snowfall 0.0 0.0  
Snow Depth 0.00 in    
Sea Level Pressure  
Sea Level Pressure 30.09 in    
Wind  
Wind Speed 9 mph (NW)    
Max Wind Speed 18 mph    
Max Gust Speed 25 mph    
Visibility 10 miles    
Events      
T = Trace of Precipitation, MM = Missing Value Source: NWS Daily Summary

Daily Weather History Graph

Daily Weather History Graph

Search for Another Location

Airport:

Trip Planner

Search our weather history database for the weather conditions in past years. The results will help you decide how hot, cold, wet, or windy it might be!

Date:

Astronomy

Jul. 29, 2014 Rise Set
Actual Time 5:55 AM CDT 8:42 PM CDT
Civil Twilight 5:21 AM CDT 9:16 PM CDT
Nautical Twilight 4:38 AM CDT 9:59 PM CDT
Astronomical Twilight 3:47 AM CDT 10:49 PM CDT
Moon 8:41 AM CDT (7/29) 9:45 PM CDT (7/29)
Length of Visible Light 15h 55m
Length of Day
14h 47m
Waxing Crescent, 7% of the Moon is Illuminated
Jul 29
Waxing Crescent
Aug 3
First Quarter
Aug 10
Full
Aug 17
Last Quarter
Aug 25
New

Hourly Weather History & Observations

Time (CDT) Temp. Heat Index Dew Point Humidity Pressure Visibility Wind Dir Wind Speed Gust Speed Precip Events Conditions
12:53 AM 64.0 °F - 55.9 °F 75% 30.13 in 10.0 mi NW 8.1 mph - N/A   Clear
1:53 AM 63.0 °F - 55.9 °F 78% 30.13 in 10.0 mi NW 6.9 mph - N/A   Clear
2:53 AM 62.1 °F - 55.9 °F 80% 30.12 in 10.0 mi WNW 5.8 mph - N/A   Clear
3:53 AM 61.0 °F - 55.9 °F 83% 30.12 in 10.0 mi WNW 5.8 mph - N/A   Clear
4:53 AM 60.1 °F - 55.9 °F 86% 30.12 in 10.0 mi NW 6.9 mph - N/A   Partly Cloudy
5:53 AM 60.1 °F - 55.0 °F 83% 30.12 in 10.0 mi WNW 5.8 mph - N/A   Partly Cloudy
6:53 AM 61.0 °F - 55.9 °F 83% 30.13 in 10.0 mi NW 5.8 mph - N/A   Partly Cloudy
7:53 AM 64.9 °F - 55.9 °F 73% 30.13 in 10.0 mi NW 5.8 mph - N/A   Partly Cloudy
8:53 AM 68.0 °F - 57.2 °F 68% 30.14 in 10.0 mi NNW 5.8 mph - N/A   Partly Cloudy
9:53 AM 72.0 °F - 57.9 °F 61% 30.13 in 10.0 mi West 5.8 mph - N/A   Clear
10:53 AM 75.0 °F - 55.9 °F 51% 30.12 in 10.0 mi NW 8.1 mph - N/A   Clear
11:53 AM 77.0 °F - 55.0 °F 47% 30.11 in 10.0 mi West 8.1 mph 18.4 mph N/A   Partly Cloudy
12:53 PM 78.1 °F - 55.0 °F 45% 30.10 in 10.0 mi WNW 12.7 mph - N/A   Mostly Cloudy
1:53 PM 80.1 °F 80.0 °F 54.0 °F 40% 30.08 in 10.0 mi WNW 13.8 mph 18.4 mph N/A   Mostly Cloudy
2:53 PM 78.1 °F - 54.0 °F 43% 30.08 in 10.0 mi West 10.4 mph 17.3 mph N/A   Mostly Cloudy
3:53 PM 80.1 °F 80.1 °F 55.0 °F 42% 30.05 in 10.0 mi West 13.8 mph - N/A   Scattered Clouds
4:53 PM 78.8 °F - 53.6 °F 42% 30.05 in 10.0 mi WNW 16.1 mph - N/A   Scattered Clouds
5:53 PM 79.0 °F - 55.0 °F 44% 30.04 in 10.0 mi WNW 15.0 mph - N/A   Scattered Clouds
6:53 PM 78.1 °F - 54.0 °F 43% 30.03 in 10.0 mi NW 16.1 mph 21.9 mph N/A   Scattered Clouds
7:53 PM 77.0 °F - 53.1 °F 43% 30.03 in 10.0 mi NW 11.5 mph - N/A   Scattered Clouds
8:53 PM 73.9 °F - 53.1 °F 48% 30.03 in 10.0 mi NW 10.4 mph - N/A   Scattered Clouds
9:53 PM 72.0 °F - 54.0 °F 53% 30.05 in 10.0 mi NNW 5.8 mph - N/A   Partly Cloudy
10:53 PM 70.0 °F - 55.0 °F 59% 30.05 in 10.0 mi NW 5.8 mph - N/A   Partly Cloudy
11:53 PM 69.1 °F - 54.0 °F 58% 30.05 in 10.0 mi NW 5.8 mph - N/A   Partly Cloudy